Location: Wapato
(46.4478°N, 120.4212°W)
Time: 09:40:13
(UTC+00:00)

Injun/Solrad 3 - Pass Details

Date: 10 May 2026
Orbit: 867 x 989 km, 66.8° (Epoch: 10 June)

Event Time Altitude Azimuth Distance (km) Brightness Sun altitude
Rises 23:16:36 0° 167° (SSE) 3,495 11.0 40.3°
Reaches altitude 10° 23:19:38 10° 152° (SSE) 2,580 10.2 39.8°
Maximum altitude 23:23:59 21° 105° (ESE) 1,929 9.4 39.1°
Drops below altitude 10° 23:28:27 10° 58° (ENE) 2,656 9.9 38.3°
Sets 23:31:37 0° 44° (NE) 3,628 10.6 37.8°
